Time,TemperatureF,DewpointF,PressureIn,WindDirection,WindDirectionDegrees,WindSpeedMPH,WindSpeedGustMPH,Humidity,HourlyPrecipIn,Conditions,Clouds,dailyrainin,SoftwareType,DateUTC
2013-07-04 00:01:00,72.4,71.2,30.20,North,349,0.0,0.0,96,0.00,,---,0.03,VWS V14.01,2013-07-04 04:01:00,
2013-07-04 00:02:00,72.4,71.2,30.20,North,349,0.0,0.0,96,0.00,,---,0.00,VWS V14.01,2013-07-04 04:02:00,
2013-07-04 00:04:00,72.4,71.2,30.20,North,350,0.0,0.0,96,0.00,,---,0.00,VWS V14.01,2013-07-04 04:04:00,
2013-07-04 00:09:00,72.4,71.2,30.20,East,99,2.0,2.0,96,0.00,,---,0.00,VWS V14.01,2013-07-04 04:09:00,
2013-07-04 00:14:00,72.3,71.1,30.20,SE,141,0.0,0.0,96,0.00,,---,0.00,VWS V14.01,2013-07-04 04:14:00,
2013-07-04 00:19:00,72.3,71.1,30.20,SE,142,0.0,0.0,96,0.00,,---,0.00,VWS V14.01,2013-07-04 04:19:00,
2013-07-04 00:24:00,72.2,71.0,30.20,East,95,0.0,0.0,96,0.00,,---,0.00,VWS V14.01,2013-07-04 04:24:00,
2013-07-04 00:29:00,72.1,70.9,30.19,North,359,0.0,1.0,96,0.00,,---,0.00,VWS V14.01,2013-07-04 04:29:00,
2013-07-04 00:34:00,72.0,70.8,30.19,North,359,0.0,0.0,96,0.00,,---,0.00,VWS V14.01,2013-07-04 04:34:00,
2013-07-04 00:39:00,71.9,70.7,30.19,WNW,300,0.0,1.0,96,0.00,,---,0.00,VWS V14.01,2013-07-04 04:39:00,
2013-07-04 00:44:00,71.8,70.6,30.19,South,184,0.0,0.0,96,0.00,,---,0.00,VWS V14.01,2013-07-04 04:44:00,
2013-07-04 00:49:00,71.8,70.9,30.19,ESE,108,0.0,0.0,97,0.00,,---,0.00,VWS V14.01,2013-07-04 04:49:00,
2013-07-04 00:54:00,71.7,70.8,30.19,SE,127,0.0,1.0,97,0.00,,---,0.00,VWS V14.01,2013-07-04 04:54:00,
2013-07-04 00:59:00,71.6,70.7,30.20,ESE,120,0.0,1.0,97,0.00,,---,0.00,VWS V14.01,2013-07-04 04:59:00,
2013-07-04 01:04:00,71.6,70.7,30.20,ESE,105,0.0,1.0,97,0.00,,---,0.00,VWS V14.01,2013-07-04 05:04:00,
2013-07-04 01:10:00,71.6,70.7,30.20,East,101,0.0,0.0,97,0.00,,---,0.00,VWS V14.01,2013-07-04 05:10:00,
2013-07-04 01:15:00,71.7,70.8,30.19,West,269,0.0,2.0,97,0.00,,---,0.00,VWS V14.01,2013-07-04 05:15:00,
2013-07-04 01:20:00,71.7,70.8,30.19,SE,144,0.0,0.0,97,0.00,,---,0.00,VWS V14.01,2013-07-04 05:20:00,
2013-07-04 01:25:00,71.7,70.8,30.19,SSW,195,0.0,2.0,97,0.00,,---,0.00,VWS V14.01,2013-07-04 05:25:00,
2013-07-04 01:30:00,71.6,70.7,30.19,NNE,18,0.0,0.0,97,0.00,,---,0.00,VWS V14.01,2013-07-04 05:30:00,
2013-07-04 01:35:00,71.6,70.7,30.19,NNE,18,0.0,0.0,97,0.00,,---,0.00,VWS V14.01,2013-07-04 05:35:00,
2013-07-04 01:40:00,71.5,70.6,30.19,NNE,23,0.0,0.0,97,0.00,,---,0.00,VWS V14.01,2013-07-04 05:40:00,
2013-07-04 01:45:00,71.4,70.5,30.19,NNE,23,0.0,0.0,97,0.00,,---,0.00,VWS V14.01,2013-07-04 05:45:00,
2013-07-04 01:50:00,71.4,70.5,30.19,North,1,0.0,0.0,97,0.00,,---,0.00,VWS V14.01,2013-07-04 05:50:00,
2013-07-04 01:55:00,71.3,70.4,30.19,ESE,103,0.0,0.0,97,0.00,,---,0.00,VWS V14.01,2013-07-04 05:55:00,
2013-07-04 02:00:00,71.2,70.3,30.19,ESE,105,0.0,0.0,97,0.00,,---,0.00,VWS V14.01,2013-07-04 06:00:00,
2013-07-04 02:05:00,71.2,70.3,30.19,SSE,156,0.0,0.0,97,0.00,,---,0.00,VWS V14.01,2013-07-04 06:05:00,
2013-07-04 02:10:00,71.1,70.2,30.19,SSE,156,0.0,0.0,97,0.00,,---,0.00,VWS V14.01,2013-07-04 06:10:00,
2013-07-04 02:16:00,71.1,70.2,30.19,SSE,156,0.0,0.0,97,0.00,,---,0.00,VWS V14.01,2013-07-04 06:16:00,
2013-07-04 02:21:00,71.0,70.1,30.18,SSE,156,0.0,0.0,97,0.00,,---,0.00,VWS V14.01,2013-07-04 06:21:00,
2013-07-04 02:26:00,70.9,70.3,30.18,SSE,157,0.0,0.0,98,0.00,,---,0.00,VWS V14.01,2013-07-04 06:26:00,
2013-07-04 02:31:00,70.9,70.3,30.19,SSE,156,0.0,0.0,98,0.00,,---,0.00,VWS V14.01,2013-07-04 06:31:00,
2013-07-04 02:36:00,70.9,70.3,30.18,SSE,156,0.0,0.0,98,0.00,,---,0.00,VWS V14.01,2013-07-04 06:36:00,
2013-07-04 02:41:00,70.8,70.2,30.18,SSE,156,0.0,0.0,98,0.00,,---,0.00,VWS V14.01,2013-07-04 06:41:00,
2013-07-04 02:46:00,70.7,70.1,30.18,SSE,157,0.0,0.0,98,0.00,,---,0.00,VWS V14.01,2013-07-04 06:46:00,
2013-07-04 02:51:00,70.7,70.1,30.18,SSE,156,0.0,0.0,98,0.00,,---,0.00,VWS V14.01,2013-07-04 06:51:00,
2013-07-04 02:57:00,70.7,70.1,30.18,SE,139,0.0,0.0,98,0.00,,---,0.00,VWS V14.01,2013-07-04 06:57:00,
2013-07-04 03:02:00,70.7,70.1,30.18,SE,139,0.0,0.0,98,0.00,,---,0.00,VWS V14.01,2013-07-04 07:02:00,
2013-07-04 03:07:00,70.7,70.1,30.18,SE,133,0.0,0.0,98,0.00,,---,0.00,VWS V14.01,2013-07-04 07:07:00,
2013-07-04 03:12:00,70.8,70.2,30.18,SE,132,0.0,0.0,98,0.00,,---,0.00,VWS V14.01,2013-07-04 07:12:00,
2013-07-04 03:17:00,70.7,70.1,30.18,SE,132,0.0,0.0,98,0.00,,---,0.00,VWS V14.01,2013-07-04 07:17:00,
2013-07-04 03:22:00,70.7,70.1,30.18,SE,128,0.0,0.0,98,0.00,,---,0.00,VWS V14.01,2013-07-04 07:22:00,
2013-07-04 03:27:00,70.6,70.0,30.18,SE,128,0.0,0.0,98,0.00,,---,0.00,VWS V14.01,2013-07-04 07:27:00,
2013-07-04 03:33:00,70.6,70.0,30.18,SE,129,0.0,0.0,98,0.00,,---,0.00,VWS V14.01,2013-07-04 07:33:00,
2013-07-04 03:38:00,70.5,69.9,30.18,SE,128,0.0,0.0,98,0.00,,---,0.00,VWS V14.01,2013-07-04 07:38:00,
2013-07-04 03:43:00,70.4,69.8,30.18,SE,129,0.0,0.0,98,0.00,,---,0.00,VWS V14.01,2013-07-04 07:43:00,
2013-07-04 03:48:00,70.3,69.7,30.18,SE,128,0.0,1.0,98,0.00,,---,0.00,VWS V14.01,2013-07-04 07:48:00,
2013-07-04 03:53:00,70.2,69.6,30.18,SE,128,0.0,1.0,98,0.00,,---,0.00,VWS V14.01,2013-07-04 07:53:00,
2013-07-04 03:58:00,70.2,69.6,30.18,East,101,0.0,1.0,98,0.00,,---,0.00,VWS V14.01,2013-07-04 07:58:00,
2013-07-04 04:03:00,70.1,69.5,30.18,East,101,0.0,1.0,98,0.00,,---,0.00,VWS V14.01,2013-07-04 08:03:00,
2013-07-04 04:08:00,70.1,69.5,30.18,ESE,117,0.0,1.0,98,0.00,,---,0.00,VWS V14.01,2013-07-04 08:08:00,
2013-07-04 04:13:00,70.0,69.4,30.17,ESE,117,0.0,1.0,98,0.00,,---,0.00,VWS V14.01,2013-07-04 08:13:00,
2013-07-04 04:18:00,70.0,69.4,30.18,ESE,118,0.0,0.0,98,0.00,,---,0.00,VWS V14.01,2013-07-04 08:18:00,
2013-07-04 04:23:00,69.9,69.3,30.17,ESE,117,0.0,0.0,98,0.00,,---,0.00,VWS V14.01,2013-07-04 08:23:00,
2013-07-04 04:28:00,69.9,69.3,30.18,ESE,115,0.0,0.0,98,0.00,,---,0.00,VWS V14.01,2013-07-04 08:28:00,
2013-07-04 04:34:00,69.9,69.6,30.18,ESE,114,0.0,0.0,99,0.00,,---,0.00,VWS V14.01,2013-07-04 08:34:00,
2013-07-04 04:39:00,70.0,69.7,30.18,ESE,114,0.0,0.0,99,0.00,,---,0.00,VWS V14.01,2013-07-04 08:39:00,
2013-07-04 04:44:00,70.1,69.8,30.18,ESE,114,0.0,0.0,99,0.00,,---,0.00,VWS V14.01,2013-07-04 08:44:00,
2013-07-04 04:49:00,70.1,69.8,30.18,ESE,111,0.0,0.0,99,0.00,,---,0.00,VWS V14.01,2013-07-04 08:49:00,
2013-07-04 04:54:00,70.0,69.7,30.18,ESE,113,0.0,0.0,99,0.00,,---,0.00,VWS V14.01,2013-07-04 08:54:00,
2013-07-04 04:59:00,70.0,69.7,30.18,ESE,114,0.0,0.0,99,0.00,,---,0.00,VWS V14.01,2013-07-04 08:59:00,
2013-07-04 05:04:00,69.9,69.6,30.18,ESE,116,0.0,0.0,99,0.00,,---,0.00,VWS V14.01,2013-07-04 09:04:00,
2013-07-04 05:09:00,69.9,69.6,30.18,ESE,115,0.0,0.0,99,0.00,,---,0.00,VWS V14.01,2013-07-04 09:09:00,
2013-07-04 05:14:00,69.8,69.5,30.18,ESE,116,0.0,0.0,99,0.00,,---,0.00,VWS V14.01,2013-07-04 09:14:00,
2013-07-04 05:19:00,69.8,69.5,30.18,ESE,119,0.0,0.0,99,0.00,,---,0.00,VWS V14.01,2013-07-04 09:19:00,
2013-07-04 05:24:00,69.8,69.5,30.18,ESE,118,0.0,0.0,99,0.00,,---,0.00,VWS V14.01,2013-07-04 09:24:00,
2013-07-04 05:30:00,69.8,69.5,30.18,ESE,119,0.0,0.0,99,0.00,,---,0.00,VWS V14.01,2013-07-04 09:30:00,
2013-07-04 05:35:00,69.8,69.5,30.19,ESE,123,0.0,0.0,99,0.00,,---,0.00,VWS V14.01,2013-07-04 09:35:00,
2013-07-04 05:40:00,69.8,69.5,30.19,ESE,122,0.0,0.0,99,0.00,,---,0.00,VWS V14.01,2013-07-04 09:40:00,
2013-07-04 05:45:00,69.9,69.6,30.19,ESE,123,0.0,0.0,99,0.00,,---,0.00,VWS V14.01,2013-07-04 09:45:00,
2013-07-04 05:50:00,70.0,69.7,30.19,ESE,122,0.0,0.0,99,0.00,,---,0.00,VWS V14.01,2013-07-04 09:50:00,
2013-07-04 05:55:00,70.0,69.7,30.19,ESE,122,0.0,0.0,99,0.00,,---,0.00,VWS V14.01,2013-07-04 09:55:00,
2013-07-04 06:00:00,70.1,69.8,30.20,SE,128,0.0,0.0,99,0.00,,---,0.00,VWS V14.01,2013-07-04 10:00:00,
2013-07-04 06:06:00,70.2,69.9,30.20,ESE,114,0.0,0.0,99,0.00,,---,0.00,VWS V14.01,2013-07-04 10:06:00,
2013-07-04 06:11:00,70.2,69.9,30.20,NE,43,0.0,0.0,99,0.00,,---,0.00,VWS V14.01,2013-07-04 10:11:00,
2013-07-04 06:16:00,70.3,70.0,30.20,NE,50,0.0,0.0,99,0.00,,---,0.00,VWS V14.01,2013-07-04 10:16:00,
2013-07-04 06:21:00,70.3,70.0,30.20,East,98,0.0,1.0,99,0.00,,---,0.00,VWS V14.01,2013-07-04 10:21:00,
2013-07-04 06:26:00,70.3,70.0,30.20,East,97,0.0,0.0,99,0.00,,---,0.00,VWS V14.01,2013-07-04 10:26:00,
2013-07-04 06:31:00,70.3,70.0,30.20,East,98,0.0,0.0,99,0.00,,---,0.00,VWS V14.01,2013-07-04 10:31:00,
2013-07-04 06:36:00,70.3,70.0,30.20,ESE,102,0.0,1.0,99,0.00,,---,0.00,VWS V14.01,2013-07-04 10:36:00,
2013-07-04 06:41:00,70.3,70.0,30.20,ESE,102,0.0,0.0,99,0.00,,---,0.00,VWS V14.01,2013-07-04 10:41:00,
2013-07-04 06:47:00,70.4,70.1,30.20,ESE,103,0.0,0.0,99,0.00,,---,0.00,VWS V14.01,2013-07-04 10:47:00,
2013-07-04 06:52:00,70.5,70.2,30.20,East,101,0.0,0.0,99,0.00,,---,0.00,VWS V14.01,2013-07-04 10:52:00,
2013-07-04 06:57:00,70.5,70.2,30.20,ESE,102,0.0,0.0,99,0.00,,---,0.00,VWS V14.01,2013-07-04 10:57:00,
2013-07-04 07:02:00,70.7,70.4,30.20,ESE,103,0.0,1.0,99,0.00,,---,0.00,VWS V14.01,2013-07-04 11:02:00,
2013-07-04 07:07:00,70.7,70.4,30.20,ESE,114,0.0,0.0,99,0.00,,---,0.00,VWS V14.01,2013-07-04 11:07:00,
2013-07-04 07:12:00,70.8,70.5,30.20,ENE,75,0.0,1.0,99,0.00,,---,0.00,VWS V14.01,2013-07-04 11:12:00,
2013-07-04 07:17:00,70.9,70.6,30.20,East,82,0.0,0.0,99,0.00,,---,0.00,VWS V14.01,2013-07-04 11:17:00,
2013-07-04 07:22:00,71.0,70.7,30.20,NNE,20,0.0,1.0,99,0.00,,---,0.00,VWS V14.01,2013-07-04 11:22:00,
2013-07-04 07:27:00,71.0,70.7,30.21,East,84,1.0,1.0,99,0.00,,---,0.00,VWS V14.01,2013-07-04 11:27:00,
2013-07-04 07:33:00,71.1,70.8,30.21,East,83,0.0,1.0,99,0.00,,---,0.00,VWS V14.01,2013-07-04 11:33:00,
2013-07-04 07:38:00,71.2,70.9,30.21,ESE,115,0.0,1.0,99,0.00,,---,0.00,VWS V14.01,2013-07-04 11:38:00,
2013-07-04 07:43:00,71.4,71.1,30.21,ESE,108,1.0,1.0,99,0.00,,---,0.00,VWS V14.01,2013-07-04 11:43:00,
2013-07-04 07:48:00,71.4,71.1,30.21,East,91,0.0,1.0,99,0.00,,---,0.00,VWS V14.01,2013-07-04 11:48:00,
2013-07-04 07:53:00,71.6,71.3,30.21,ESE,114,0.0,1.0,99,0.00,,---,0.00,VWS V14.01,2013-07-04 11:53:00,
2013-07-04 07:58:00,71.6,71.3,30.21,ESE,104,0.0,1.0,99,0.00,,---,0.00,VWS V14.01,2013-07-04 11:58:00,
2013-07-04 08:03:00,71.7,71.4,30.21,ESE,104,0.0,1.0,99,0.00,,---,0.00,VWS V14.01,2013-07-04 12:03:00,
2013-07-04 08:08:00,71.8,71.5,30.21,NE,50,0.0,0.0,99,0.00,,---,0.00,VWS V14.01,2013-07-04 12:08:00,
2013-07-04 08:13:00,72.0,71.7,30.22,East,84,1.0,1.0,99,0.00,,---,0.00,VWS V14.01,2013-07-04 12:13:00,
2013-07-04 08:18:00,72.2,71.6,30.22,ENE,63,0.0,0.0,98,0.00,,---,0.00,VWS V14.01,2013-07-04 12:18:00,
2013-07-04 08:24:00,72.5,71.9,30.22,ESE,117,0.0,0.0,98,0.00,,---,0.00,VWS V14.01,2013-07-04 12:24:00,
2013-07-04 08:29:00,72.8,72.2,30.22,ESE,115,0.0,0.0,98,0.00,,---,0.00,VWS V14.01,2013-07-04 12:29:00,
2013-07-04 08:34:00,73.0,72.1,30.22,NE,56,0.0,0.0,97,0.00,,---,0.00,VWS V14.01,2013-07-04 12:34:00,
2013-07-04 08:39:00,73.1,71.9,30.22,NE,50,0.0,0.0,96,0.00,,---,0.00,VWS V14.01,2013-07-04 12:39:00,
2013-07-04 08:44:00,73.5,72.3,30.22,ESE,110,0.0,0.0,96,0.00,,---,0.00,VWS V14.01,2013-07-04 12:44:00,
2013-07-04 08:49:00,73.6,72.1,30.22,East,101,0.0,0.0,95,0.00,,---,0.00,VWS V14.01,2013-07-04 12:49:00,
2013-07-04 08:54:00,73.8,72.3,30.22,East,101,0.0,0.0,95,0.00,,---,0.00,VWS V14.01,2013-07-04 12:54:00,
2013-07-04 08:59:00,74.0,72.2,30.23,ENE,63,0.0,1.0,94,0.00,,---,0.00,VWS V14.01,2013-07-04 12:59:00,
2013-07-04 09:05:00,74.2,72.4,30.23,ENE,63,0.0,0.0,94,0.00,,---,0.00,VWS V14.01,2013-07-04 13:05:00,
2013-07-04 09:10:00,74.5,72.3,30.23,ENE,66,0.0,0.0,93,0.00,,---,0.00,VWS V14.01,2013-07-04 13:10:00,
2013-07-04 09:15:00,74.7,72.6,30.23,East,81,0.0,0.0,93,0.00,,---,0.00,VWS V14.01,2013-07-04 13:15:00,
2013-07-04 09:20:00,75.0,72.8,30.23,ENE,65,0.0,1.0,93,0.00,,---,0.00,VWS V14.01,2013-07-04 13:20:00,
2013-07-04 09:25:00,75.3,72.5,30.23,WNW,298,0.0,3.0,91,0.00,,---,0.00,VWS V14.01,2013-07-04 13:25:00,
2013-07-04 09:30:00,75.6,72.8,30.23,NNW,342,0.0,0.0,91,0.00,,---,0.00,VWS V14.01,2013-07-04 13:30:00,
2013-07-04 09:35:00,75.7,72.9,30.22,NE,48,1.0,2.0,91,0.00,,---,0.00,VWS V14.01,2013-07-04 13:35:00,
2013-07-04 09:40:00,75.9,72.8,30.22,NW,326,0.0,1.0,90,0.00,,---,0.00,VWS V14.01,2013-07-04 13:40:00,
2013-07-04 09:45:00,76.0,73.2,30.22,North,6,0.0,0.0,91,0.00,,---,0.00,VWS V14.01,2013-07-04 13:45:00,
2013-07-04 09:50:00,76.0,72.9,30.22,ENE,62,0.0,0.0,90,0.00,,---,0.00,VWS V14.01,2013-07-04 13:50:00,
2013-07-04 09:55:00,76.1,73.0,30.22,East,96,0.0,1.0,90,0.00,,---,0.00,VWS V14.01,2013-07-04 13:55:00,
2013-07-04 10:00:00,76.4,73.2,30.22,SE,131,0.0,0.0,90,0.00,,---,0.00,VWS V14.01,2013-07-04 14:00:00,
2013-07-04 10:05:00,76.4,73.2,30.22,ENE,58,0.0,0.0,90,0.00,,---,0.00,VWS V14.01,2013-07-04 14:05:00,
2013-07-04 10:10:00,76.6,73.1,30.22,SSE,160,0.0,2.0,89,0.00,,---,0.00,VWS V14.01,2013-07-04 14:10:00,
2013-07-04 10:15:00,77.1,73.3,30.22,NNW,333,0.0,0.0,88,0.00,,---,0.00,VWS V14.01,2013-07-04 14:15:00,
2013-07-04 10:20:00,77.6,73.8,30.22,SW,221,0.0,0.0,88,0.00,,---,0.00,VWS V14.01,2013-07-04 14:20:00,
2013-07-04 10:25:00,77.8,73.6,30.22,ESE,102,0.0,1.0,87,0.00,,---,0.00,VWS V14.01,2013-07-04 14:25:00,
2013-07-04 10:30:00,77.9,73.7,30.22,East,88,0.0,0.0,87,0.00,,---,0.00,VWS V14.01,2013-07-04 14:30:00,
2013-07-04 10:35:00,78.2,73.7,30.22,SE,132,0.0,0.0,86,0.00,,---,0.00,VWS V14.01,2013-07-04 14:35:00,
2013-07-04 10:40:00,78.5,72.9,30.22,NNW,335,0.0,0.0,83,0.00,,---,0.00,VWS V14.01,2013-07-04 14:40:00,
2013-07-04 10:46:00,78.8,73.9,30.22,NNE,13,0.0,0.0,85,0.00,,---,0.00,VWS V14.01,2013-07-04 14:46:00,
2013-07-04 10:51:00,79.1,74.2,30.22,NNW,338,0.0,0.0,85,0.00,,---,0.00,VWS V14.01,2013-07-04 14:51:00,
2013-07-04 10:56:00,79.2,73.6,30.22,NE,47,0.0,0.0,83,0.00,,---,0.00,VWS V14.01,2013-07-04 14:56:00,
2013-07-04 11:01:00,79.3,74.4,30.22,NNW,340,1.0,1.0,85,0.00,,---,0.00,VWS V14.01,2013-07-04 15:01:00,
2013-07-04 11:06:00,79.2,74.3,30.22,ENE,72,0.0,0.0,85,0.00,,---,0.00,VWS V14.01,2013-07-04 15:06:00,
2013-07-04 11:11:00,79.0,74.5,30.22,NE,53,1.0,1.0,86,0.00,,---,0.00,VWS V14.01,2013-07-04 15:11:00,
2013-07-04 11:16:00,79.0,73.8,30.22,NE,53,1.0,1.0,84,0.00,,---,0.00,VWS V14.01,2013-07-04 15:16:00,
2013-07-04 11:21:00,79.1,74.6,30.22,ESE,105,0.0,0.0,86,0.00,,---,0.00,VWS V14.01,2013-07-04 15:21:00,
2013-07-04 11:27:00,79.2,74.3,30.21,ENE,65,2.0,2.0,85,0.00,,---,0.00,VWS V14.01,2013-07-04 15:27:00,
2013-07-04 11:32:00,79.5,74.6,30.21,ENE,68,1.0,1.0,85,0.00,,---,0.00,VWS V14.01,2013-07-04 15:32:00,
2013-07-04 11:37:00,79.6,74.3,30.21,ENE,60,0.0,0.0,84,0.00,,---,0.00,VWS V14.01,2013-07-04 15:37:00,
2013-07-04 11:42:00,79.8,74.2,30.21,North,353,0.0,0.0,83,0.00,,---,0.00,VWS V14.01,2013-07-04 15:42:00,
2013-07-04 11:47:00,79.7,74.1,30.21,ENE,61,0.0,0.0,83,0.00,,---,0.00,VWS V14.01,2013-07-04 15:47:00,
2013-07-04 11:52:00,79.6,74.7,30.21,SSE,150,0.0,0.0,85,0.00,,---,0.00,VWS V14.01,2013-07-04 15:52:00,
2013-07-04 11:57:00,79.5,74.6,30.21,SE,143,0.0,0.0,85,0.00,,---,0.00,VWS V14.01,2013-07-04 15:57:00,
2013-07-04 12:02:00,79.7,74.4,30.21,SE,139,0.0,0.0,84,0.00,,---,0.00,VWS V14.01,2013-07-04 16:02:00,
2013-07-04 12:07:00,79.7,73.4,30.20,NW,314,1.0,1.0,81,0.00,,---,0.00,VWS V14.01,2013-07-04 16:07:00,
2013-07-04 12:12:00,80.1,74.8,30.20,NW,321,0.0,1.0,84,0.00,,---,0.00,VWS V14.01,2013-07-04 16:12:00,
2013-07-04 12:17:00,80.7,75.1,30.20,East,101,0.0,0.0,83,0.00,,---,0.00,VWS V14.01,2013-07-04 16:17:00,
2013-07-04 12:22:00,81.1,75.4,30.20,ENE,77,0.0,1.0,83,0.00,,---,0.00,VWS V14.01,2013-07-04 16:22:00,
2013-07-04 12:27:00,81.1,74.7,30.20,North,351,0.0,2.0,81,0.00,,---,0.00,VWS V14.01,2013-07-04 16:27:00,
2013-07-04 12:32:00,81.5,75.5,30.20,ENE,77,1.0,1.0,82,0.00,,---,0.00,VWS V14.01,2013-07-04 16:32:00,
2013-07-04 12:37:00,81.6,74.5,30.20,NNW,331,0.0,1.0,79,0.00,,---,0.00,VWS V14.01,2013-07-04 16:37:00,
2013-07-04 12:42:00,81.5,74.7,30.20,ENE,59,0.0,1.0,80,0.00,,---,0.00,VWS V14.01,2013-07-04 16:42:00,
2013-07-04 12:47:00,81.7,74.9,30.20,ENE,74,1.0,1.0,80,0.00,,---,0.00,VWS V14.01,2013-07-04 16:47:00,
2013-07-04 12:52:00,81.4,74.3,30.20,NW,318,0.0,0.0,79,0.00,,---,0.00,VWS V14.01,2013-07-04 16:52:00,
2013-07-04 12:58:00,81.3,74.5,30.20,NW,317,0.0,0.0,80,0.00,,---,0.00,VWS V14.01,2013-07-04 16:58:00,
2013-07-04 13:03:00,81.6,74.5,30.20,NE,53,0.0,0.0,79,0.00,,---,0.00,VWS V14.01,2013-07-04 17:03:00,
2013-07-04 13:08:00,81.6,75.2,30.20,NE,47,0.0,0.0,81,0.00,,---,0.00,VWS V14.01,2013-07-04 17:08:00,
2013-07-04 13:13:00,81.7,75.3,30.20,ENE,60,0.0,0.0,81,0.00,,---,0.00,VWS V14.01,2013-07-04 17:13:00,
2013-07-04 13:18:00,81.6,74.8,30.20,SE,124,0.0,0.0,80,0.00,,---,0.00,VWS V14.01,2013-07-04 17:18:00,
2013-07-04 13:23:00,81.6,74.8,30.20,East,100,0.0,0.0,80,0.00,,---,0.00,VWS V14.01,2013-07-04 17:23:00,
2013-07-04 13:28:00,81.6,75.2,30.20,SE,146,0.0,0.0,81,0.00,,---,0.00,VWS V14.01,2013-07-04 17:28:00,
2013-07-04 13:33:00,82.3,76.6,30.20,ESE,103,1.0,2.0,83,0.00,,---,0.00,VWS V14.01,2013-07-04 17:33:00,
2013-07-04 13:38:00,82.5,75.3,30.20,NE,40,0.0,1.0,79,0.00,,---,0.00,VWS V14.01,2013-07-04 17:38:00,
2013-07-04 13:43:00,82.0,74.5,30.20,NW,311,0.0,0.0,78,0.00,,---,0.00,VWS V14.01,2013-07-04 17:43:00,
2013-07-04 13:48:00,81.7,74.6,30.19,South,187,0.0,0.0,79,0.00,,---,0.00,VWS V14.01,2013-07-04 17:48:00,
2013-07-04 13:54:00,81.5,74.4,30.19,ESE,118,0.0,0.0,79,0.00,,---,0.00,VWS V14.01,2013-07-04 17:54:00,
2013-07-04 13:59:00,81.8,76.1,30.19,ENE,66,0.0,0.0,83,0.00,,---,0.00,VWS V14.01,2013-07-04 17:59:00,
2013-07-04 14:04:00,82.3,76.3,30.19,ENE,73,0.0,0.0,82,0.00,,---,0.00,VWS V14.01,2013-07-04 18:04:00,
2013-07-04 14:09:00,82.4,76.0,30.19,East,91,0.0,3.0,81,0.00,,---,0.00,VWS V14.01,2013-07-04 18:09:00,
2013-07-04 14:14:00,82.6,76.2,30.19,East,90,0.0,1.0,81,0.00,,---,0.00,VWS V14.01,2013-07-04 18:14:00,
2013-07-04 14:19:00,82.9,75.7,30.19,East,96,0.0,0.0,79,0.00,,---,0.00,VWS V14.01,2013-07-04 18:19:00,
2013-07-04 14:24:00,83.2,75.6,30.18,ESE,103,0.0,1.0,78,0.00,,---,0.00,VWS V14.01,2013-07-04 18:24:00,
2013-07-04 14:30:00,83.2,75.2,30.18,NNE,20,0.0,0.0,77,0.00,,---,0.00,VWS V14.01,2013-07-04 18:30:00,
2013-07-04 14:35:00,83.5,75.9,30.18,SE,146,1.0,2.0,78,0.00,,---,0.00,VWS V14.01,2013-07-04 18:35:00,
2013-07-04 14:40:00,83.4,75.1,30.18,East,101,0.0,0.0,76,0.00,,---,0.00,VWS V14.01,2013-07-04 18:40:00,
2013-07-04 14:45:00,83.2,75.2,30.18,SE,125,0.0,1.0,77,0.00,,---,0.00,VWS V14.01,2013-07-04 18:45:00,
2013-07-04 14:50:00,83.2,75.6,30.18,East,94,0.0,1.0,78,0.00,,---,0.00,VWS V14.01,2013-07-04 18:50:00,
2013-07-04 14:55:00,83.4,75.8,30.18,NNW,347,0.0,0.0,78,0.00,,---,0.00,VWS V14.01,2013-07-04 18:55:00,
2013-07-04 15:00:00,83.6,76.4,30.18,NE,55,0.0,2.0,79,0.00,,---,0.00,VWS V14.01,2013-07-04 19:00:00,
2013-07-04 15:05:00,83.5,75.5,30.18,East,96,0.0,1.0,77,0.00,,---,0.00,VWS V14.01,2013-07-04 19:05:00,
2013-07-04 15:10:00,83.5,75.5,30.17,SSE,162,1.0,1.0,77,0.00,,---,0.00,VWS V14.01,2013-07-04 19:10:00,
2013-07-04 15:16:00,83.6,74.8,30.17,North,355,0.0,0.0,75,0.00,,---,0.00,VWS V14.01,2013-07-04 19:16:00,
2013-07-04 15:21:00,83.9,75.5,30.17,NE,35,0.0,2.0,76,0.00,,---,0.00,VWS V14.01,2013-07-04 19:21:00,
2013-07-04 15:26:00,83.9,75.1,30.17,SW,219,0.0,1.0,75,0.00,,---,0.00,VWS V14.01,2013-07-04 19:26:00,
2013-07-04 15:31:00,83.7,75.7,30.17,East,92,0.0,3.0,77,0.00,,---,0.00,VWS V14.01,2013-07-04 19:31:00,
2013-07-04 15:36:00,83.7,75.7,30.17,ESE,102,1.0,1.0,77,0.00,,---,0.00,VWS V14.01,2013-07-04 19:36:00,
2013-07-04 15:42:00,83.4,75.1,30.17,NNE,32,0.0,1.0,76,0.00,,---,0.00,VWS V14.01,2013-07-04 19:42:00,
2013-07-04 15:47:00,83.0,75.4,30.16,North,359,0.0,0.0,78,0.00,,---,0.00,VWS V14.01,2013-07-04 19:47:00,
2013-07-04 15:52:00,82.8,74.1,30.16,NE,48,0.0,2.0,75,0.00,,---,0.00,VWS V14.01,2013-07-04 19:52:00,
2013-07-04 15:57:00,82.8,73.7,30.16,NW,321,1.0,5.0,74,0.00,,---,0.00,VWS V14.01,2013-07-04 19:57:00,
2013-07-04 16:02:00,82.9,74.9,30.16,SE,132,0.0,1.0,77,0.00,,---,0.00,VWS V14.01,2013-07-04 20:02:00,
2013-07-04 16:07:00,82.7,74.4,30.16,SSE,152,0.0,1.0,76,0.00,,---,0.00,VWS V14.01,2013-07-04 20:07:00,
2013-07-04 16:12:00,82.5,75.3,30.16,ENE,63,0.0,0.0,79,0.00,,---,0.00,VWS V14.01,2013-07-04 20:12:00,
2013-07-04 16:17:00,82.7,74.4,30.15,SSE,148,0.0,2.0,76,0.00,,---,0.00,VWS V14.01,2013-07-04 20:17:00,
2013-07-04 16:22:00,82.6,75.1,30.15,East,93,0.0,1.0,78,0.00,,---,0.00,VWS V14.01,2013-07-04 20:22:00,
2013-07-04 16:27:00,82.5,74.6,30.15,SE,146,0.0,1.0,77,0.00,,---,0.00,VWS V14.01,2013-07-04 20:27:00,
2013-07-04 16:33:00,82.8,75.6,30.15,SSE,148,0.0,0.0,79,0.00,,---,0.00,VWS V14.01,2013-07-04 20:33:00,
2013-07-04 16:38:00,83.1,74.8,30.15,NE,43,0.0,0.0,76,0.00,,---,0.00,VWS V14.01,2013-07-04 20:38:00,
2013-07-04 16:43:00,83.3,74.9,30.15,North,11,1.0,2.0,76,0.00,,---,0.00,VWS V14.01,2013-07-04 20:43:00,
2013-07-04 16:48:00,83.6,74.8,30.15,NNW,343,0.0,1.0,75,0.00,,---,0.00,VWS V14.01,2013-07-04 20:48:00,
2013-07-04 16:53:00,83.7,75.3,30.15,SE,126,0.0,1.0,76,0.00,,---,0.00,VWS V14.01,2013-07-04 20:53:00,
2013-07-04 16:59:00,83.6,74.4,30.15,SSW,212,0.0,2.0,74,0.00,,---,0.00,VWS V14.01,2013-07-04 20:59:00,
2013-07-04 17:04:00,83.2,74.8,30.14,NNE,13,1.0,2.0,76,0.00,,---,0.00,VWS V14.01,2013-07-04 21:04:00,
2013-07-04 17:09:00,83.0,74.7,30.14,ENE,63,0.0,0.0,76,0.00,,---,0.00,VWS V14.01,2013-07-04 21:09:00,
2013-07-04 17:14:00,83.0,75.4,30.14,ESE,122,0.0,0.0,78,0.00,,---,0.00,VWS V14.01,2013-07-04 21:14:00,
2013-07-04 17:19:00,83.0,74.3,30.14,NW,307,0.0,3.0,75,0.00,,---,0.00,VWS V14.01,2013-07-04 21:19:00,
2013-07-04 17:24:00,82.9,75.3,30.15,North,349,0.0,0.0,78,0.00,,---,0.00,VWS V14.01,2013-07-04 21:24:00,
2013-07-04 17:29:00,82.8,74.9,30.14,NE,39,0.0,1.0,77,0.00,,---,0.00,VWS V14.01,2013-07-04 21:29:00,
2013-07-04 17:34:00,82.4,73.7,30.14,SSE,153,0.0,0.0,75,0.00,,---,0.00,VWS V14.01,2013-07-04 21:34:00,
2013-07-04 17:39:00,82.3,74.4,30.14,SE,137,1.0,1.0,77,0.00,,---,0.00,VWS V14.01,2013-07-04 21:39:00,
2013-07-04 17:44:00,81.9,74.0,30.14,SE,136,0.0,0.0,77,0.00,,---,0.00,VWS V14.01,2013-07-04 21:44:00,
2013-07-04 17:49:00,81.6,73.7,30.14,SSE,150,0.0,1.0,77,0.00,,---,0.00,VWS V14.01,2013-07-04 21:49:00,
2013-07-04 17:55:00,81.5,74.0,30.14,South,186,0.0,0.0,78,0.00,,---,0.00,VWS V14.01,2013-07-04 21:55:00,
2013-07-04 18:00:00,81.3,74.2,30.14,SSW,200,0.0,0.0,79,0.00,,---,0.00,VWS V14.01,2013-07-04 22:00:00,
2013-07-04 18:05:00,81.1,73.6,30.14,WSW,253,0.0,0.0,78,0.00,,---,0.00,VWS V14.01,2013-07-04 22:05:00,
2013-07-04 18:10:00,81.1,74.0,30.14,WSW,252,0.0,0.0,79,0.00,,---,0.00,VWS V14.01,2013-07-04 22:10:00,
2013-07-04 18:15:00,81.2,73.7,30.14,SSE,167,0.0,1.0,78,0.00,,---,0.00,VWS V14.01,2013-07-04 22:15:00,
2013-07-04 18:20:00,81.3,74.2,30.14,NW,315,0.0,0.0,79,0.00,,---,0.00,VWS V14.01,2013-07-04 22:20:00,
2013-07-04 18:25:00,81.3,73.8,30.14,ESE,117,0.0,0.0,78,0.00,,---,0.00,VWS V14.01,2013-07-04 22:25:00,
2013-07-04 18:30:00,81.1,74.0,30.14,SE,145,0.0,0.0,79,0.00,,---,0.00,VWS V14.01,2013-07-04 22:30:00,
2013-07-04 18:35:00,80.8,74.1,30.14,South,172,1.0,3.0,80,0.00,,---,0.00,VWS V14.01,2013-07-04 22:35:00,
2013-07-04 18:40:00,80.3,72.4,30.14,NW,325,0.0,5.0,77,0.00,,---,0.00,VWS V14.01,2013-07-04 22:40:00,
2013-07-04 18:45:00,80.3,73.2,30.14,SSE,152,0.0,0.0,79,0.00,,---,0.00,VWS V14.01,2013-07-04 22:45:00,
2013-07-04 18:51:00,80.1,73.4,30.14,SSW,204,0.0,0.0,80,0.00,,---,0.00,VWS V14.01,2013-07-04 22:51:00,
2013-07-04 18:56:00,79.8,72.7,30.15,South,184,0.0,1.0,79,0.00,,---,0.00,VWS V14.01,2013-07-04 22:56:00,
2013-07-04 19:01:00,79.7,72.6,30.15,NNE,25,0.0,0.0,79,0.00,,---,0.00,VWS V14.01,2013-07-04 23:01:00,
2013-07-04 19:06:00,79.5,73.2,30.15,SSW,211,0.0,1.0,81,0.00,,---,0.00,VWS V14.01,2013-07-04 23:06:00,
2013-07-04 19:11:00,79.2,72.5,30.15,SSE,156,0.0,0.0,80,0.00,,---,0.00,VWS V14.01,2013-07-04 23:11:00,
2013-07-04 19:16:00,79.0,72.7,30.15,SSE,157,0.0,0.0,81,0.00,,---,0.00,VWS V14.01,2013-07-04 23:16:00,
2013-07-04 19:21:00,78.8,72.1,30.15,SSW,197,0.0,0.0,80,0.00,,---,0.00,VWS V14.01,2013-07-04 23:21:00,
2013-07-04 19:27:00,78.7,72.0,30.15,NNW,330,0.0,0.0,80,0.00,,---,0.00,VWS V14.01,2013-07-04 23:27:00,
2013-07-04 19:32:00,78.5,72.2,30.15,NNW,330,0.0,0.0,81,0.00,,---,0.00,VWS V14.01,2013-07-04 23:32:00,
2013-07-04 19:37:00,78.2,71.9,30.16,NNW,330,0.0,0.0,81,0.00,,---,0.00,VWS V14.01,2013-07-04 23:37:00,
2013-07-04 19:42:00,78.0,72.1,30.16,West,281,0.0,0.0,82,0.00,,---,0.00,VWS V14.01,2013-07-04 23:42:00,
2013-07-04 19:47:00,77.8,71.9,30.16,WSW,248,0.0,0.0,82,0.00,,---,0.00,VWS V14.01,2013-07-04 23:47:00,
2013-07-04 19:52:00,77.7,71.8,30.16,SW,222,0.0,1.0,82,0.00,,---,0.00,VWS V14.01,2013-07-04 23:52:00,
2013-07-04 19:57:00,77.5,71.6,30.16,WSW,256,0.0,0.0,82,0.00,,---,0.00,VWS V14.01,2013-07-04 23:57:00,
2013-07-04 20:02:00,77.3,71.7,30.16,WSW,256,0.0,0.0,83,0.00,,---,0.00,VWS V14.01,2013-07-05 00:02:00,
2013-07-04 20:07:00,77.1,71.5,30.16,SW,232,0.0,0.0,83,0.00,,---,0.00,VWS V14.01,2013-07-05 00:07:00,
2013-07-04 20:13:00,76.9,71.3,30.16,SW,232,0.0,0.0,83,0.00,,---,0.00,VWS V14.01,2013-07-05 00:13:00,
2013-07-04 20:18:00,76.8,71.2,30.16,SW,232,0.0,0.0,83,0.00,,---,0.00,VWS V14.01,2013-07-05 00:18:00,
2013-07-04 20:23:00,76.6,71.1,30.16,SW,232,0.0,0.0,83,0.00,,---,0.00,VWS V14.01,2013-07-05 00:23:00,
2013-07-04 20:28:00,76.4,71.2,30.16,SW,232,0.0,0.0,84,0.00,,---,0.00,VWS V14.01,2013-07-05 00:28:00,
2013-07-04 20:33:00,76.2,70.7,30.16,West,273,0.0,1.0,83,0.00,,---,0.00,VWS V14.01,2013-07-05 00:33:00,
2013-07-04 20:38:00,76.1,70.9,30.16,West,271,0.0,0.0,84,0.00,,---,0.00,VWS V14.01,2013-07-05 00:38:00,
2013-07-04 20:43:00,76.0,70.8,30.16,West,271,0.0,0.0,84,0.00,,---,0.00,VWS V14.01,2013-07-05 00:43:00,
2013-07-04 20:48:00,75.9,70.7,30.16,West,270,0.0,0.0,84,0.00,,---,0.00,VWS V14.01,2013-07-05 00:48:00,
2013-07-04 20:53:00,75.8,70.6,30.16,West,270,0.0,0.0,84,0.00,,---,0.00,VWS V14.01,2013-07-05 00:53:00,
2013-07-04 20:58:00,75.8,70.6,30.16,West,259,0.0,0.0,84,0.00,,---,0.00,VWS V14.01,2013-07-05 00:58:00,
2013-07-04 21:04:00,75.7,70.9,30.16,West,259,0.0,0.0,85,0.00,,---,0.00,VWS V14.01,2013-07-05 01:04:00,
2013-07-04 21:09:00,75.6,70.8,30.16,West,259,0.0,0.0,85,0.00,,---,0.00,VWS V14.01,2013-07-05 01:09:00,
2013-07-04 21:14:00,75.5,70.7,30.16,West,259,0.0,0.0,85,0.00,,---,0.00,VWS V14.01,2013-07-05 01:14:00,
2013-07-04 21:19:00,75.3,70.8,30.17,West,259,0.0,0.0,86,0.00,,---,0.00,VWS V14.01,2013-07-05 01:19:00,
2013-07-04 21:24:00,75.1,70.6,30.17,WSW,254,0.0,0.0,86,0.00,,---,0.00,VWS V14.01,2013-07-05 01:24:00,
2013-07-04 21:29:00,75.1,70.6,30.17,WSW,255,0.0,0.0,86,0.00,,---,0.00,VWS V14.01,2013-07-05 01:29:00,
2013-07-04 21:34:00,75.0,70.5,30.17,WSW,255,0.0,0.0,86,0.00,,---,0.00,VWS V14.01,2013-07-05 01:34:00,
2013-07-04 21:39:00,74.9,70.4,30.17,WSW,254,0.0,0.0,86,0.00,,---,0.00,VWS V14.01,2013-07-05 01:39:00,
2013-07-04 21:44:00,74.9,70.8,30.17,WSW,255,0.0,0.0,87,0.00,,---,0.00,VWS V14.01,2013-07-05 01:44:00,
2013-07-04 21:49:00,74.8,70.7,30.17,WSW,255,0.0,0.0,87,0.00,,---,0.00,VWS V14.01,2013-07-05 01:49:00,
2013-07-04 21:54:00,74.8,70.7,30.17,WSW,255,0.0,0.0,87,0.00,,---,0.00,VWS V14.01,2013-07-05 01:54:00,
2013-07-04 21:59:00,74.8,70.7,30.18,WSW,254,0.0,0.0,87,0.00,,---,0.00,VWS V14.01,2013-07-05 01:59:00,
2013-07-04 22:05:00,74.8,70.7,30.18,WSW,255,0.0,0.0,87,0.00,,---,0.00,VWS V14.01,2013-07-05 02:05:00,
2013-07-04 22:10:00,74.7,70.6,30.18,WSW,255,0.0,0.0,87,0.00,,---,0.00,VWS V14.01,2013-07-05 02:10:00,
2013-07-04 22:15:00,74.7,70.6,30.18,SSW,210,0.0,1.0,87,0.00,,---,0.00,VWS V14.01,2013-07-05 02:15:00,
2013-07-04 22:20:00,74.9,70.8,30.18,SSW,208,0.0,0.0,87,0.00,,---,0.00,VWS V14.01,2013-07-05 02:20:00,
2013-07-04 22:25:00,75.0,70.9,30.18,SSE,149,0.0,0.0,87,0.00,,---,0.00,VWS V14.01,2013-07-05 02:25:00,
2013-07-04 22:30:00,74.9,70.8,30.18,SSE,150,0.0,0.0,87,0.00,,---,0.00,VWS V14.01,2013-07-05 02:30:00,
2013-07-04 22:35:00,74.8,70.7,30.18,SSE,149,0.0,0.0,87,0.00,,---,0.00,VWS V14.01,2013-07-05 02:35:00,
2013-07-04 22:41:00,74.7,70.6,30.18,SSE,147,0.0,0.0,87,0.00,,---,0.00,VWS V14.01,2013-07-05 02:41:00,
2013-07-04 22:46:00,74.8,70.7,30.18,West,270,0.0,0.0,87,0.00,,---,0.00,VWS V14.01,2013-07-05 02:46:00,
2013-07-04 22:51:00,74.9,70.4,30.18,WNW,288,0.0,0.0,86,0.00,,---,0.00,VWS V14.01,2013-07-05 02:51:00,
2013-07-04 22:56:00,75.0,70.5,30.18,West,274,0.0,0.0,86,0.00,,---,0.00,VWS V14.01,2013-07-05 02:56:00,
2013-07-04 23:01:00,75.0,70.5,30.18,SSW,203,0.0,0.0,86,0.00,,---,0.00,VWS V14.01,2013-07-05 03:01:00,
2013-07-04 23:02:00,75.0,70.5,30.18,SSW,203,0.0,0.0,86,0.00,,---,0.00,VWS V14.01,2013-07-05 03:02:00,
2013-07-04 23:07:00,74.8,70.7,30.18,SSW,203,0.0,0.0,87,0.00,,---,0.00,VWS V14.01,2013-07-05 03:07:00,
2013-07-04 23:12:00,74.7,70.6,30.18,North,6,0.0,1.0,87,0.00,,---,0.00,VWS V14.01,2013-07-05 03:12:00,
2013-07-04 23:17:00,74.6,70.5,30.18,North,6,0.0,0.0,87,0.00,,---,0.00,VWS V14.01,2013-07-05 03:17:00,
2013-07-04 23:22:00,74.4,70.6,30.18,SSE,166,0.0,0.0,88,0.00,,---,0.00,VWS V14.01,2013-07-05 03:22:00,
2013-07-04 23:27:00,74.3,70.5,30.18,SSE,167,0.0,0.0,88,0.00,,---,0.00,VWS V14.01,2013-07-05 03:27:00,
2013-07-04 23:32:00,74.2,70.4,30.18,SSE,166,0.0,0.0,88,0.00,,---,0.00,VWS V14.01,2013-07-05 03:32:00,
2013-07-04 23:38:00,74.1,70.3,30.18,SSE,167,0.0,0.0,88,0.00,,---,0.00,VWS V14.01,2013-07-05 03:38:00,
2013-07-04 23:43:00,74.0,70.2,30.18,SSE,159,0.0,0.0,88,0.00,,---,0.00,VWS V14.01,2013-07-05 03:43:00,
2013-07-04 23:48:00,74.0,70.2,30.18,SSE,159,0.0,0.0,88,0.00,,---,0.00,VWS V14.01,2013-07-05 03:48:00,
2013-07-04 23:53:00,74.1,70.3,30.18,SSE,152,0.0,0.0,88,0.00,,---,0.00,VWS V14.01,2013-07-05 03:53:00,
2013-07-04 23:58:00,74.1,70.3,30.18,SSE,152,0.0,0.0,88,0.00,,---,0.00,VWS V14.01,2013-07-05 03:58:00,